Weather History for MRLM - December, 2012

Change the Weather History Date:

Thursday, December 27, 2012

  Actual Average Record
Temperature  
Mean Temperature 80 °F -  
Max Temperature 87 °F 80 °F 87 °F (2012)
Min Temperature 73 °F 71 °F 65 °F (2013)
Cooling Degree Days 15    
Growing Degree Days 30 (Base 50)    
Moisture  
Dew Point 75 °F    
Average Humidity 86    
Maximum Humidity 94    
Minimum Humidity 62    
Precipitation  
Precipitation 0.47 in 0.43 in - ()
Sea Level Pressure  
Sea Level Pressure 29.83 in    
Wind  
Wind Speed 4 mph ()    
Max Wind Speed 7 mph    
Max Gust Speed -    
Visibility 5.9 miles    
Events Rain , Thunderstorm    
Averages and records for this station are not official NWS values.
T = Trace of Precipitation, MM = Missing Value Source: Averaged Metar Reports

Daily Weather History Graph

Daily Weather History Graph

Search for Another Location

Airport or City:

Trip Planner

Search our weather history database for the weather conditions in past years. The results will help you decide how hot, cold, wet, or windy it might be!

Date:

Astronomy

Dec. 27, 2012 Rise Set
Actual Time 5:47 AM CST 5:19 PM CST
Civil Twilight 5:24 AM CST 5:42 PM CST
Nautical Twilight 4:57 AM CST 6:09 PM CST
Astronomical Twilight 4:31 AM CST 6:35 PM CST
Moon 4:56 PM CST (12/27) 5:02 AM CST (12/27)
Length of Visible Light 12h 18m
Length of Day
11h 32m
Full, 100% of the Moon is Illuminated
Dec 27
Full
Dec 28
Full
Jan 4
Last Quarter
Jan 11
New
Jan 18
First Quarter

Hourly Weather History & Observations

Time (CST) Temp. Heat Index Dew Point Humidity Pressure Visibility Wind Dir Wind Speed Gust Speed Precip Events Conditions
6:00 AM 75 °F - 73 °F 92% 29.85 in 8 mi WSW 5.8 mph - - Rain Light Drizzle
6:00 AM 75.2 °F - 73.4 °F 94% 29.84 in 6.2 mi WSW 5.8 mph - N/A   Drizzle
7:00 AM 75.2 °F - 73.4 °F 94% 29.85 in 6.2 mi West 5.8 mph - N/A   Mostly Cloudy
8:00 AM 77.0 °F - 75.2 °F 94% 29.88 in 5.0 mi WSW 4.6 mph - N/A   Drizzle
9:00 AM 80 °F - 73 °F 75% 29.90 in 8 mi SW 5.8 mph - - Rain Light Drizzle
9:00 AM 80.6 °F 86.2 °F 75.2 °F 84% 29.88 in 6.2 mi SW 5.8 mph - N/A   Overcast
10:00 AM 86.0 °F 96.9 °F 77.0 °F 74% 29.88 in 6.2 mi NW 3.5 mph - N/A   Unknown
11:00 AM 86.0 °F 96.9 °F 77.0 °F 74% 29.86 in 6.2 mi SE 5.8 mph - N/A   Mostly Cloudy
12:00 PM 87 °F - 76 °F 62% 29.86 in 8 mi ENE 2.3 mph - -   Overcast
12:00 PM 87.8 °F 97.6 °F 75.2 °F 66% 29.84 in 6.2 mi ENE 2.3 mph - N/A   Unknown
1:00 PM 84.2 °F 92.3 °F 75.2 °F 74% 29.80 in 1.9 mi NE 3.5 mph - N/A Rain Heavy Rain
1:27 PM 77.0 °F - 75.2 °F 94% 29.79 in - North - - N/A Rain , Thunderstorm Thunderstorms and Rain
2:00 PM 77.0 °F - 75.2 °F 94% 29.78 in 3.7 mi South 4.6 mph - N/A Rain Rain
3:00 PM 76 °F - 74 °F 91% 29.82 in - South 6.9 mph - - Rain Light Rain
3:00 PM 75.2 °F - 73.4 °F 94% 29.80 in 1.9 mi South 6.9 mph - N/A Rain Rain
4:00 PM 75.2 °F - 73.4 °F 94% 29.78 in 6.2 mi West 2.3 mph - N/A   Drizzle
5:00 PM 77.0 °F - 75.2 °F 94% 29.78 in 6.2 mi WSW 2.3 mph - N/A   Drizzle
6:00 PM 76 °F - 75 °F 94% 29.81 in 8 mi WSW 4.6 mph - -   Overcast
6:00 PM 77.0 °F - 75.2 °F 94% 29.80 in 6.2 mi WSW 4.6 mph - N/A   Mostly Cloudy